Wind_Speed
14 14 15 15 15 16 16 16 17 18 18 18 18 17 17 17 17 16 16 17 17 16 16 16 16 16 16 16 16 15 14 14 13 13 12 12 13 13 14 15 15 15 16 18 20 23 25 26 24 23 22 22 22 21 21 20 20 19 20 21 22 22 19 15 11 10 13 10 6 6 6 8 10 12 12 13 13 11 10 11 12 11 11 10 10 9 7 5
13 13 14 14 15 15 15 15 16 17 17 18 18 17 17 17 17 17 17 17 17 17 16 16 16 16 16 16 16 15 14 14 13 13 12 12 13 13 13 14 14 15 16 18 20 22 25 26 25 24 24 23 22 22 22 21 21 21 21 22 22 21 17 14 10 10 13 12 8 6 6 7 9 11 12 12 12 11 10 9 10 10 10 9 8 7 6 5
13 13 14 14 14 15 15 15 15 16 16 17 17 17 17 17 17 17 17 17 17 17 17 17 17 16 16 16 15 14 14 13 13 13 13 13 13 12 13 13 14 15 16 18 20 22 25 26 26 25 25 24 23 23 22 22 21 21 22 22 22 20 16 13 11 10 13 14 11 7 6 7 8 10 10 9 10 10 9 7 7 7 8 7 6 6 5 4
13 13 14 14 14 14 15 15 15 15 15 16 16 16 17 17 17 17 17 17 18 17 17 17 17 16 16 15 14 14 13 13 13 14 13 13 12 12 13 14 14 15 16 17 18 21 23 25 26 26 25 24 24 23 23 22 22 22 22 22 21 20 17 13 11 11 12 14 13 9 6 7 9 9 9 8 7 7 7 6 6 5 5 4 4 4 4 4
13 14 14 14 14 15 15 15 15 15 15 15 15 15 16 16 17 17 17 17 17 17 17 17 16 16 15 14 13 12 12 12 13 14 14 13 12 12 12 13 14 14 15 15 17 20 22 25 26 26 26 26 25 24 23 23 23 22 22 22 22 20 17 15 12 11 12 14 15 12 9 9 10 9 9 9 7 6 5 5 5 4 3 2 3 3 4 5
14 14 15 15 15 15 15 15 15 15 15 15 15 15 15 15 16 16 17 17 17 17 17 16 16 15 14 13 12 11 10 10 12 12 12 12 11 12 12 12 13 13 13 14 16 18 21 24 25 26 27 26 26 24 23 23 23 22 21 21 22 20 18 15 12 11 13 15 16 16 14 11 10 9 9 10 7 6 6 4 4 3 2 1 2 4 5 6
14 15 15 15 15 16 16 16 16 15 15 15 15 15 15 15 15 16 16 16 16 16 16 16 15 14 13 12 11 11 10 11 13 12 12 12 11 11 12 11 11 11 12 13 15 17 20 23 25 26 26 26 25 24 23 22 22 22 21 21 21 21 18 14 13 13 15 17 18 19 18 13 11 10 10 10 8 7 7 5 4 3 2 1 2 5 6 6
15 15 16 16 16 16 16 16 16 16 15 15 15 15 15 15 15 15 15 15 15 16 15 15 15 13 13 12 11 10 10 12 14 13 13 13 12 12 13 12 11 10 11 12 15 17 19 21 23 24 25 25 24 23 22 21 21 22 21 21 21 20 18 16 15 16 17 18 18 19 19 16 14 12 11 11 10 9 7 6 5 4 3 2 4 7 7 7
15 16 16 16 16 16 16 16 16 16 16 16 16 15 15 14 14 15 15 15 15 15 15 14 14 13 12 11 11 10 10 13 13 13 14 14 13 12 13 13 12 12 12 12 15 16 18 19 20 22 23 23 23 22 22 20 19 20 21 20 21 19 19 18 17 18 18 19 19 18 19 18 15 13 12 12 12 10 8 7 6 6 5 4 6 9 9 8
15 15 16 15 15 15 15 15 16 16 16 16 16 15 15 14 14 14 15 15 14 14 14 14 13 13 12 11 11 10 11 12 12 12 13 13 12 11 12 13 12 12 12 12 14 15 16 17 17 19 20 20 21 21 21 20 18 18 19 21 21 20 19 19 19 19 18 18 18 18 19 19 17 14 13 12 12 10 8 8 7 7 6 8 11 11 10 9
15 15 15 15 14 14 14 14 15 15 15 16 16 16 15 15 15 15 15 15 14 14 14 13 13 13 12 11 11 11 12 11 11 12 13 12 11 10 11 12 12 12 11 11 12 13 14 15 16 16 17 18 19 19 19 19 18 17 17 18 20 19 19 19 18 19 18 16 16 17 19 20 19 16 14 12 11 9 8 7 7 7 8 13 13 11 10 10
14 14 14 14 13 13 13 13 14 14 15 15 15 16 16 15 15 16 15 15 15 15 14 14 13 13 12 11 11 11 12 10 9 11 12 12 10 10 10 10 11 11 10 10 12 14 15 16 17 17 16 16 17 16 16 17 17 17 17 14 14 16 17 17 16 18 17 13 13 16 18 21 21 18 14 12 9 8 8 8 8 8 12 15 14 12 11 9
14 14 13 13 13 13 13 13 14 14 14 14 15 15 16 16 16 17 16 15 16 15 15 14 14 13 11 10 11 12 11 9 9 11 13 12 11 9 9 10 10 11 12 14 15 15 16 16 17 17 17 14 15 14 12 15 16 15 17 13 11 12 14 15 15 16 15 11 12 14 16 20 21 18 16 12 9 8 8 9 10 10 14 15 14 13 11 9
14 14 13 13 13 13 14 14 15 15 15 15 15 15 16 16 17 17 16 16 16 16 16 15 14 13 11 9 11 10 9 9 10 12 13 12 11 10 10 10 10 11 14 17 18 18 17 18 17 16 17 14 15 14 10 12 14 13 13 12 11 9 9 13 15 15 14 12 13 14 15 18 18 17 17 13 11 10 9 11 12 13 15 15 15 13 11 10
13 13 14 13 13 14 14 15 15 15 15 15 15 16 16 16 16 16 16 16 16 16 16 15 14 13 10 9 10 9 8 10 11 12 12 11 11 10 11 11 11 13 17 19 19 19 18 20 18 14 16 15 13 13 11 10 12 13 11 10 12 11 8 11 15 15 15 13 14 15 16 17 16 16 15 13 13 13 12 12 13 15 17 15 14 13 12 11
14 14 14 14 14 14 14 15 15 15 16 16 16 16 16 16 16 16 16 16 15 15 15 15 14 13 11 9 10 9 10 11 11 11 11 11 11 11 12 12 13 16 20 20 19 18 17 18 18 13 13 15 12 12 13 10 10 12 11 9 10 12 11 11 13 14 14 13 12 13 14 14 14 15 15 14 14 14 14 14 14 16 18 16 14 13 12 11
14 14 14 14 14 14 15 15 15 15 15 16 16 16 16 16 15 15 14 14 14 13 13 13 13 13 11 10 10 10 13 13 12 11 11 12 11 11 12 12 16 21 22 21 19 18 17 16 18 15 11 13 13 13 13 10 10 12 12 10 8 11 13 10 11 11 10 11 10 11 13 13 11 11 13 16 17 16 16 17 16 17 19 17 15 14 13 11
14 15 15 15 15 15 15 15 15 15 15 15 15 16 16 15 15 14 13 13 13 12 11 10 11 11 9 11 11 11 14 15 12 12 12 12 12 13 14 15 20 24 22 21 19 17 16 14 15 16 12 12 13 14 13 10 11 12 13 12 9 10 11 9 9 8 8 10 10 10 12 12 13 12 9 13 19 20 18 19 18 18 20 18 16 15 13 12
15 15 15 15 15 15 14 14 15 15 15 15 15 16 16 15 14 13 13 13 11 11 10 9 9 9 9 11 12 13 15 15 13 13 13 13 14 15 18 21 25 25 21 20 19 16 14 13 14 16 15 14 12 12 13 10 10 11 11 11 10 10 10 9 7 6 7 9 9 12 13 12 14 15 12 10 16 22 22 21 20 20 21 19 17 15 14 13
16 15 15 16 16 15 14 14 14 14 14 14 15 16 16 15 15 14 13 13 12 13 13 12 11 11 12 12 13 14 15 15 14 14 15 14 15 18 21 25 26 23 20 19 18 16 13 13 14 15 14 13 12 11 11 11 10 10 10 9 10 10 9 7 4 5 6 6 7 11 14 14 14 17 16 11 12 18 22 22 21 22 22 19 17 15 15 15
17 16 16 16 16 16 14 13 14 13 13 14 15 16 16 16 16 15 14 11 9 12 14 15 15 12 14 15 15 15 15 15 16 16 16 15 17 20 24 25 25 22 20 18 17 16 15 14 13 12 11 11 13 13 11 11 11 9 9 8 8 9 7 5 3 4 4 5 6 8 13 16 17 19 18 13 11 13 17 21 21 22 22 19 17 17 16 16
18 18 17 16 16 16 15 13 13 12 12 13 14 16 16 16 15 16 17 12 5 8 14 17 15 10 12 17 17 17 17 17 17 18 17 17 19 22 24 24 23 21 20 19 17 15 16 16 13 10 11 12 13 14 12 11 12 10 9 9 8 7 5 4 3 4 3 4 5 7 14 17 18 19 17 14 12 11 16 21 22 23 22 20 18 18 17 16
19 19 19 18 17 17 16 14 13 13 12 13 14 16 15 15 15 15 18 17 7 5 11 15 13 8 10 18 20 19 19 17 18 19 18 17 20 22 24 23 21 21 20 20 19 16 14 14 12 10 9 10 11 13 13 13 13 11 9 9 9 5 3 4 3 5 3 2 4 8 17 19 18 18 16 13 11 12 18 22 23 23 21 20 19 18 17 16
19 19 19 19 18 18 17 14 14 13 12 13 14 15 14 13 14 14 17 20 12 5 8 13 12 7 9 18 22 21 19 17 19 21 19 18 20 21 22 21 19 20 20 19 18 17 14 9 8 11 9 8 10 10 12 13 12 11 11 10 8 4 2 2 2 3 2 1 1 9 13 16 19 17 15 13 10 12 18 22 23 23 21 20 19 17 17 15
20 20 20 19 19 19 18 15 14 14 12 13 13 14 13 12 12 14 16 20 16 8 6 9 9 7 12 19 22 20 18 18 18 20 20 18 18 18 18 19 18 18 18 18 18 18 16 10 8 12 9 6 9 10 11 12 11 11 12 10 8 5 2 1 1 2 2 1 5 8 6 8 16 16 14 14 11 11 16 20 21 20 21 20 19 17 17 16
20 20 20 20 20 19 19 17 16 14 13 13 14 13 12 10 10 12 15 19 16 7 3 3 4 7 11 18 22 20 18 17 17 19 20 17 16 15 15 17 17 16 15 16 16 17 17 13 11 10 5 3 8 11 11 12 13 12 11 10 8 5 2 2 3 3 3 3 7 6 2 4 11 13 13 14 13 12 14 17 18 18 20 20 19 17 18 18
21 20 20 20 20 19 19 19 17 15 14 14 14 13 12 10 9 11 12 12 9 2 3 3 4 5 8 16 22 21 16 14 17 19 19 18 17 16 15 17 17 16 16 15 14 15 15 14 11 8 3 1 7 12 12 13 14 12 9 10 9 5 1 2 4 5 4 6 6 4 5 6 7 10 13 14 14 13 14 16 17 19 20 20 19 18 19 19
22 21 20 20 20 20 19 18 17 16 15 14 13 13 12 8 7 8 7 4 3 1 2 1 5 5 8 16 22 22 13 11 18 19 18 19 18 17 17 17 16 14 16 17 14 12 13 13 10 8 5 2 5 9 12 14 15 12 9 9 8 4 2 3 6 6 5 7 4 4 8 6 5 9 13 13 13 13 13 13 15 19 21 20 20 19 20 20
21 21 21 19 20 21 20 18 18 17 16 15 13 13 12 8 6 5 3 1 2 1 0 2 4 3 8 16 22 24 14 8 16 19 19 20 19 18 17 15 15 13 13 17 16 11 9 10 9 8 7 3 2 5 11 14 14 13 11 10 7 3 3 5 7 7 7 6 4 6 10 5 4 11 13 12 13 12 11 11 12 16 20 22 21 20 21 21
21 21 21 20 19 20 20 18 18 18 17 15 14 14 12 9 7 3 0 3 2 1 2 3 3 2 7 15 21 25 18 10 10 16 21 22 18 18 17 14 14 14 13 15 17 14 10 9 10 9 9 5 2 4 11 15 13 12 11 10 7 4 5 5 6 7 5 4 5 8 10 6 4 10 13 12 12 11 11 10 10 12 17 22 25 24 23 23
20 20 20 20 19 18 19 18 18 19 18 16 15 14 13 12 10 4 1 5 5 2 2 4 6 4 4 12 19 24 23 15 8 11 22 24 20 20 19 16 15 13 13 15 15 15 14 13 12 12 10 7 4 4 9 13 13 12 12 11 7 5 5 5 5 6 4 3 5 9 11 8 5 9 14 14 13 13 13 11 10 10 12 18 25 27 25 24
21 19 19 19 19 18 18 18 19 20 18 17 16 15 15 13 12 12 8 5 4 5 6 6 7 6 4 7 15 22 24 21 14 11 18 23 22 22 20 18 17 12 11 14 14 13 14 14 13 13 13 11 8 6 8 13 14 14 13 11 7 3 4 4 3 3 3 2 4 7 9 7 6 10 16 16 15 16 14 13 12 11 10 12 19 26 27 26
22 20 19 19 19 18 18 18 19 20 19 18 17 17 18 12 9 20 21 10 4 6 8 6 6 7 4 4 11 18 22 22 19 15 16 18 19 21 20 19 19 14 9 11 14 12 10 12 14 15 15 14 12 10 10 13 16 16 15 13 9 4 2 3 2 0 3 3 5 7 7 5 6 11 18 18 16 17 15 14 13 12 12 12 14 21 28 29
23 22 19 19 18 17 17 18 19 20 20 20 19 20 20 13 12 20 22 17 11 7 6 6 6 6 5 5 7 13 18 20 20 19 18 18 18 20 21 20 20 19 14 11 12 11 7 8 12 16 16 15 14 12 11 13 16 17 17 15 13 9 5 3 3 3 3 3 6 8 6 5 7 11 16 18 17 16 15 14 14 14 15 15 14 17 24 30
23 23 20 18 17 17 16 16 18 20 21 22 22 24 25 22 21 20 17 16 17 14 13 12 10 9 7 7 7 8 13 17 19 20 20 20 21 20 20 20 19 20 20 15 11 9 7 7 9 14 17 16 15 13 12 13 15 17 18 16 14 13 10 5 4 5 4 3 5 7 5 5 8 10 12 15 15 15 14 14 14 15 16 17 17 17 21 29
22 22 20 18 16 16 15 15 16 19 22 24 25 28 31 28 23 17 13 13 14 16 16 14 13 12 10 9 9 8 11 13 14 18 19 19 21 21 20 19 18 19 19 18 14 10 8 8 8 13 16 16 15 15 15 15 14 16 18 18 16 15 13 9 4 4 4 3 4 5 4 5 8 8 10 10 9 10 10 11 13 15 17 18 20 21 22 26
22 21 19 17 16 15 14 14 15 18 22 25 29 30 31 30 24 17 12 12 12 13 13 10 9 9 8 8 9 9 11 11 10 14 17 17 16 20 22 20 19 18 17 18 17 13 9 7 7 11 14 16 18 16 16 18 17 15 16 18 17 13 12 10 4 3 3 2 4 5 4 6 7 6 9 10 7 7 7 9 11 12 15 16 18 19 17 20
22 20 17 15 15 15 14 13 15 19 21 26 31 31 29 29 27 22 16 13 12 10 9 7 6 6 5 5 7 9 12 11 9 10 14 15 12 13 20 22 19 18 16 16 18 15 12 8 6 9 12 14 19 18 16 18 21 18 15 16 15 10 10 11 6 3 4 3 1 4 4 7 10 8 9 12 10 8 7 7 7 6 6 6 5 3 3 7
21 19 16 13 13 13 13 12 14 19 23 28 31 30 29 28 27 25 21 16 13 11 8 6 6 6 5 4 5 7 11 13 12 10 9 12 11 10 13 16 16 16 16 16 18 17 16 11 6 8 11 11 16 19 17 18 21 21 17 15 15 11 11 14 10 6 7 4 2 4 3 6 12 12 11 13 12 10 9 7 4 2 1 2 4 7 8 6
20 19 16 13 11 11 10 10 14 18 24 28 29 28 28 26 24 25 24 21 17 15 12 10 9 9 8 8 6 5 9 13 14 14 11 9 10 9 10 10 10 12 14 16 18 18 18 16 9 7 11 11 13 17 17 17 19 22 21 19 18 15 12 13 11 8 7 3 2 4 2 5 14 16 14 15 13 13 11 7 4 2 2 3 5 8 9 8
19 16 14 12 10 7 7 9 14 18 23 26 27 28 27 23 20 19 21 22 21 19 17 15 13 12 12 12 8 4 7 10 11 15 17 15 12 9 8 9 9 9 11 14 18 19 19 19 15 10 11 13 14 16 16 16 17 20 22 22 21 19 15 11 7 8 8 4 5 5 2 6 16 19 17 17 15 14 13 10 6 5 4 3 4 6 6 6
19 15 12 10 8 5 5 9 13 17 21 24 25 25 26 23 18 13 14 17 18 18 18 16 15 14 14 14 13 8 7 8 9 11 16 19 20 16 11 10 9 8 8 10 15 19 19 18 17 14 13 14 14 14 16 16 17 18 19 20 20 20 19 12 7 9 11 7 6 6 3 6 15 19 19 19 16 15 14 12 8 7 7 7 8 8 7 7
18 15 12 10 7 5 3 8 13 17 21 23 23 21 21 21 18 13 13 13 14 15 15 15 14 14 15 15 15 13 10 10 9 10 12 15 20 22 20 17 12 7 6 7 11 17 18 16 15 12 10 12 12 12 14 15 14 15 16 18 18 19 20 17 11 12 15 12 8 6 3 7 16 19 18 18 16 15 15 13 10 9 9 10 12 13 10 8
16 13 11 10 7 4 4 8 12 17 20 18 17 18 17 16 15 14 13 13 12 11 12 13 13 13 14 14 14 14 13 12 10 10 11 12 14 19 22 24 21 13 8 7 10 15 14 12 14 11 6 7 8 8 11 12 11 11 13 15 16 17 18 17 13 12 14 15 14 7 3 8 17 18 17 16 16 16 16 15 13 11 10 10 13 15 10 8
14 11 10 9 7 4 6 9 11 14 18 16 13 14 14 13 14 13 12 11 11 11 10 11 12 12 13 13 14 14 13 13 11 10 12 13 13 15 16 19 22 20 16 10 9 13 13 13 17 14 7 6 6 6 9 12 10 9 11 12 13 14 15 14 14 11 11 15 16 10 5 13 20 19 17 17 16 17 18 16 15 13 11 12 15 15 11 10
12 11 10 9 7 4 4 7 10 12 15 16 13 12 12 12 12 12 11 10 10 11 12 11 11 12 12 12 13 13 13 13 11 10 14 16 15 15 14 15 16 18 19 17 13 12 11 12 15 17 16 12 8 8 12 14 13 11 11 11 10 11 12 13 13 11 11 14 15 11 9 17 23 20 18 19 18 19 19 18 17 16 16 17 18 15 13 12
13 14 13 11 8 7 4 4 6 10 14 15 13 11 11 12 10 9 11 11 10 11 12 12 11 12 12 13 13 12 13 14 13 12 15 18 17 16 15 15 13 12 15 19 20 15 7 5 6 8 13 11 6 7 10 12 13 12 11 10 9 7 7 10 10 9 10 11 10 10 12 17 23 23 21 20 20 20 21 20 19 19 20 20 19 16 14 14
15 16 15 14 13 11 6 4 2 3 10 13 12 9 11 13 11 10 10 10 11 11 11 12 12 11 12 13 13 13 13 14 13 14 16 18 18 17 16 15 13 12 13 16 20 19 14 9 6 6 8 8 7 7 8 9 12 12 11 9 8 6 4 4 5 5 7 7 5 7 12 17 23 24 22 21 21 22 22 22 22 22 22 21 19 17 16 16
15 15 14 15 16 16 12 10 9 5 6 11 11 9 11 14 13 12 11 10 11 11 9 9 11 11 12 12 12 12 14 13 13 14 15 17 17 17 16 15 13 13 14 13 14 17 17 16 17 15 9 8 7 8 9 9 10 9 7 5 3 3 5 3 2 2 3 4 2 4 9 16 21 23 22 22 21 22 24 23 23 24 23 21 20 19 18 18
14 14 14 13 14 16 16 13 11 8 8 11 13 12 12 14 14 13 12 10 11 10 8 8 10 9 9 10 10 11 13 13 12 13 15 15 16 16 14 12 11 12 13 14 15 16 15 15 18 19 16 12 10 10 10 9 8 6 4 4 5 4 5 3 1 0 1 1 2 2 8 15 19 20 21 21 21 22 23 23 23 23 21 20 20 19 19 19
12 12 12 11 11 14 15 13 11 10 10 11 12 14 14 13 14 14 13 12 12 11 10 9 9 8 6 5 6 8 10 11 11 12 13 13 13 13 12 10 10 10 11 14 17 17 17 17 18 18 18 18 18 15 12 11 11 11 12 12 11 10 9 7 5 5 5 4 4 4 9 14 17 19 20 20 20 21 22 22 22 22 21 20 19 19 20 20
12 10 10 10 10 11 13 11 9 10 12 13 13 12 12 12 12 11 11 12 12 11 10 9 8 7 6 5 5 6 7 8 9 10 10 11 12 12 11 10 10 11 12 12 14 17 16 17 19 18 16 17 17 15 15 14 11 12 17 17 15 14 14 12 10 9 9 9 7 6 9 13 16 19 20 20 20 21 21 22 22 22 22 22 21 21 21 21
Wind_Direction
292 293 294 294 293 293 292 291 290 287 284 282 279 278 276 274 272 269 267 265 264 264 264 265 266 268 270 271 271 272 271 271 270 268 265 261 256 253 248 247 245 242 238 235 232 230 228 225 223 220 220 220 219 219 218 218 217 218 219 222 228 231 233 230 228 205 179 175 156 132 125 130 115 112 117 115 123 132 136 138 138 130 120 116 103 100 97 90
294 296 297 297 297 297 296 296 294 291 288 285 282 278 276 273 272 269 267 265 264 264 264 265 266 267 269 270 271 271 270 271 271 269 266 260 256 253 250 249 245 242 237 233 230 228 228 225 223 220 220 220 219 219 217 218 218 219 222 225 230 232 234 230 225 210 194 186 173 150 127 130 121 110 108 102 108 124 138 135 128 124 116 108 92 82 77 82
297 299 300 300 300 300 301 301 299 296 293 289 285 280 277 274 271 268 267 266 265 264 264 265 266 267 268 270 271 270 270 270 270 269 265 260 257 254 250 248 244 240 235 233 230 228 226 225 222 220 221 221 220 219 218 217 218 219 223 227 231 233 232 227 219 215 208 198 189 176 138 134 130 116 108 99 98 117 134 128 119 120 113 97 68 64 72 84
299 300 301 301 302 303 304 303 302 301 299 296 291 285 279 275 271 269 267 266 266 265 264 265 265 267 268 269 269 269 269 269 268 265 263 261 258 254 249 246 243 239 236 233 232 230 227 225 223 221 221 221 221 221 220 218 218 219 222 227 231 232 229 222 217 216 216 208 201 195 162 148 144 134 128 119 105 112 124 122 119 115 107 77 41 62 86 101
300 300 301 302 303 304 305 305 305 303 303 302 298 293 285 279 275 271 269 268 267 265 265 264 265 266 267 267 267 266 267 270 267 261 260 259 255 252 248 245 243 240 238 235 233 232 228 225 223 221 221 221 222 222 221 220 219 220 221 225 229 230 226 221 217 215 218 215 210 207 191 172 165 156 149 141 132 133 132 128 128 124 116 63 40 87 106 114
301 301 301 302 303 304 304 304 304 304 303 303 302 300 294 286 279 274 271 270 268 267 266 265 265 264 264 264 263 262 263 265 261 256 255 251 246 246 245 244 244 240 237 234 231 230 228 225 223 222 221 221 223 223 223 223 221 221 223 226 231 231 225 220 219 214 215 214 211 212 208 193 181 175 166 157 150 154 160 157 150 141 137 82 80 119 120 113
303 302 302 302 302 302 302 302 302 302 302 301 302 302 299 293 285 279 275 273 271 270 268 267 266 264 263 260 258 257 258 256 253 253 252 248 241 239 238 237 239 239 236 232 229 228 228 226 224 221 221 221 223 224 225 226 225 223 224 227 233 234 228 221 216 212 212 211 211 213 213 205 196 192 181 175 169 167 180 186 185 189 195 206 152 150 138 115
303 302 302 301 301 301 301 300 300 300 300 299 299 300 300 297 291 284 279 275 273 271 269 267 266 264 261 257 255 252 253 255 254 254 253 251 244 237 236 236 235 238 235 230 226 224 224 225 224 221 219 221 222 223 226 228 228 225 224 228 234 236 232 223 213 209 210 210 213 214 213 210 208 207 193 186 186 186 196 199 206 221 223 223 186 162 141 120
303 302 302 301 301 300 299 299 298 298 297 297 296 297 298 297 294 287 282 277 272 269 268 265 264 262 257 254 251 248 249 252 253 252 252 251 248 241 240 241 238 236 233 229 227 223 221 222 223 220 218 220 221 222 225 227 229 228 226 231 235 234 232 227 214 208 209 209 214 217 215 214 215 214 205 197 196 197 205 211 220 230 227 210 181 161 140 128
302 301 301 301 301 301 300 299 298 296 296 295 295 294 294 296 293 288 283 277 272 268 265 263 261 258 255 252 248 248 247 245 248 248 249 251 251 248 244 242 236 230 228 227 226 224 221 217 217 217 216 219 219 220 223 224 225 228 229 233 236 235 233 231 218 210 212 210 216 222 218 220 222 219 213 207 205 205 211 215 220 229 213 180 171 162 147 140
301 300 300 301 301 301 301 300 299 298 297 296 295 294 294 294 292 288 283 277 273 268 264 262 259 256 254 249 247 248 242 239 242 241 244 248 250 252 245 239 235 228 223 223 221 217 212 208 207 208 210 213 215 217 221 221 220 222 228 233 238 237 233 233 222 211 215 217 222 228 224 224 225 224 220 214 210 207 212 218 219 217 189 169 166 160 151 149
300 298 298 299 300 301 302 302 302 302 301 300 298 296 293 292 290 287 284 278 273 268 264 260 258 255 250 247 247 244 241 240 236 234 240 244 248 253 246 234 231 225 214 207 208 205 198 196 197 198 200 206 207 210 217 217 215 218 224 230 236 241 235 232 223 211 215 222 227 230 230 229 227 227 226 220 212 205 210 218 216 200 180 172 165 155 151 151
299 297 295 295 297 300 301 303 303 304 304 304 303 300 295 291 287 287 287 284 278 271 266 260 257 253 246 246 247 243 243 238 227 229 236 242 248 250 244 234 226 219 204 192 190 188 183 186 193 195 196 199 199 201 209 210 211 216 225 229 231 241 238 230 222 214 216 222 226 229 234 235 232 232 232 225 213 206 211 214 210 195 181 173 163 154 152 154
296 294 292 292 293 297 301 303 304 305 305 305 305 305 302 293 288 288 289 289 284 277 271 263 256 251 242 241 246 244 239 224 218 228 233 240 244 240 236 229 218 209 199 191 182 173 173 183 189 192 195 192 192 195 192 196 206 213 221 228 226 231 236 228 223 218 218 224 229 232 240 240 235 234 231 223 212 204 206 208 206 195 181 170 161 156 155 159
294 291 288 288 290 295 299 302 304 305 306 305 305 307 306 299 291 289 289 290 289 285 278 268 259 252 239 235 245 239 216 210 214 222 228 231 232 229 221 211 201 194 190 185 176 168 174 186 185 186 193 191 190 190 180 179 195 204 207 216 220 219 216 215 219 223 225 229 231 232 242 241 233 233 228 218 211 206 203 202 202 193 179 168 163 160 160 164
292 289 286 286 288 292 297 301 304 305 305 304 304 305 306 305 298 293 293 293 293 291 285 274 261 251 239 229 235 225 199 202 213 215 218 219 218 216 206 195 187 183 181 175 169 169 177 187 187 185 192 194 190 185 186 185 189 198 204 203 206 208 207 209 213 219 222 223 227 230 239 242 234 235 234 225 218 212 205 196 194 188 175 168 169 165 163 167
291 289 286 284 285 289 294 299 303 305 305 303 302 302 303 307 306 301 297 295 295 294 290 279 260 247 239 229 227 215 196 199 211 211 213 212 208 202 192 184 179 176 172 170 168 172 178 185 189 189 189 192 191 187 188 195 194 193 197 198 193 194 201 202 196 201 209 216 230 239 240 239 232 239 238 230 221 212 204 195 190 183 171 167 173 168 166 169
291 289 286 284 283 286 291 296 301 304 305 303 301 300 301 305 309 307 300 297 299 300 296 283 260 243 233 228 225 212 196 199 210 211 210 206 199 190 180 174 173 171 171 172 172 174 180 183 188 191 191 188 191 194 193 199 201 192 188 193 195 196 201 198 190 202 223 231 243 254 249 235 226 227 222 219 216 208 201 196 190 181 171 169 175 170 169 172
291 289 286 284 283 283 287 292 298 301 303 302 300 299 299 303 308 309 304 302 305 302 292 279 257 232 218 216 216 210 199 202 209 210 207 201 195 186 174 171 172 173 176 177 176 179 184 185 187 193 197 196 195 198 203 207 200 188 184 190 198 206 207 201 205 234 243 247 255 256 251 238 226 218 203 201 205 202 201 197 189 180 173 172 176 173 171 174
291 289 287 285 283 282 283 288 293 298 300 299 298 298 298 301 304 305 301 302 303 295 282 272 259 231 212 205 205 205 200 203 209 208 206 199 191 184 176 175 176 177 181 181 182 186 189 194 198 197 198 203 208 212 215 212 194 180 185 194 203 211 207 201 231 253 244 265 272 252 241 232 222 211 204 203 194 195 199 196 187 179 173 173 177 174 174 177
290 290 288 286 284 281 280 283 287 292 294 295 297 297 298 302 306 307 303 298 288 283 275 267 263 242 214 204 203 201 199 202 206 206 206 197 189 184 180 181 183 182 182 185 190 194 198 205 206 202 204 209 217 224 226 216 200 192 196 200 203 207 205 199 224 243 252 291 284 241 220 214 207 199 200 203 195 192 196 193 188 180 171 173 178 176 178 183
289 288 287 286 285 282 279 279 281 285 287 289 292 295 300 305 311 315 312 304 269 262 269 266 268 256 215 206 204 201 201 202 203 205 205 197 189 186 186 188 189 188 186 190 196 202 211 216 209 205 215 220 224 227 228 217 203 203 208 205 199 197 197 178 193 257 279 312 289 218 193 193 192 189 191 195 195 193 193 192 189 180 170 172 178 179 185 189
289 288 286 285 284 282 280 276 276 278 278 281 285 292 300 308 316 321 317 312 300 259 264 264 270 265 212 207 206 203 204 203 203 205 201 197 190 188 191 193 193 193 193 198 202 206 217 226 218 209 214 216 220 220 216 207 200 205 209 202 196 189 191 175 202 274 273 322 290 195 181 183 180 182 186 187 186 187 191 191 187 178 169 172 178 183 192 193
287 287 286 284 283 281 279 275 272 272 272 273 278 289 296 307 318 319 318 313 310 304 269 260 267 262 204 204 207 206 205 203 205 204 197 195 191 189 194 197 197 199 200 205 212 215 222 235 214 199 199 198 205 209 204 201 201 207 205 194 185 172 166 175 212 263 239 351 234 167 170 181 179 179 184 183 179 182 188 186 182 176 170 174 181 187 196 197
286 285 283 283 282 280 278 274 269 267 267 267 271 282 291 305 316 315 318 314 312 321 291 260 258 242 208 204 205 203 203 202 205 204 198 195 193 189 192 198 201 203 204 209 216 221 223 222 190 184 191 193 200 203 200 202 206 207 200 185 171 154 143 181 230 227 202 169 160 151 150 181 181 181 184 184 184 184 182 178 176 175 174 179 183 189 199 200
287 283 281 280 279 278 277 274 268 264 263 262 266 274 284 299 309 313 319 313 308 321 332 283 240 222 210 205 202 197 199 202 200 202 201 197 197 194 192 198 201 199 200 205 213 220 218 211 194 185 191 188 194 200 198 199 202 208 204 186 173 160 151 233 233 211 206 178 167 173 188 168 177 184 183 182 187 186 180 177 178 180 184 187 187 191 200 202
290 285 281 278 276 275 273 272 269 263 258 257 261 265 273 286 298 316 324 313 304 305 328 302 201 198 203 200 198 193 195 199 197 202 203 199 198 200 198 201 199 194 195 198 207 213 206 201 199 194 201 167 185 198 201 199 200 206 204 184 171 156 139 251 227 216 203 175 169 192 190 158 167 183 178 177 185 190 188 188 189 190 194 196 193 195 201 204
293 288 283 278 275 272 268 269 268 262 255 251 255 257 262 270 284 315 334 322 300 321 340 249 170 180 200 198 195 192 192 193 196 200 200 197 199 201 202 203 200 196 200 203 204 205 199 197 199 198 208 188 178 198 205 203 205 205 192 177 172 175 238 246 224 207 186 182 185 178 170 159 161 171 167 172 186 195 197 198 200 198 199 201 201 201 202 206
295 291 286 280 275 271 267 265 263 260 254 245 246 250 249 252 265 296 333 287 281 248 147 144 167 187 201 199 193 191 193 187 195 199 194 194 199 202 205 202 198 201 209 211 211 210 203 199 199 205 219 220 171 193 199 200 206 203 190 182 189 216 243 231 217 196 180 194 204 177 175 175 170 168 161 164 179 188 190 195 204 204 203 203 204 207 207 207
299 294 289 283 276 271 266 262 257 255 252 241 237 238 236 233 237 247 199 232 239 215 236 207 182 179 198 200 193 192 194 181 185 197 195 196 200 203 205 202 202 209 217 219 218 217 216 212 212 218 228 229 194 176 187 193 200 199 191 190 199 217 213 210 205 188 181 201 192 182 186 188 180 177 171 166 171 180 189 196 206 212 210 206 204 207 209 210
304 298 293 285 278 272 265 259 253 249 247 238 230 228 222 219 216 193 174 237 231 215 218 179 169 170 197 202 197 197 200 193 182 191 194 196 200 206 208 206 205 210 221 227 227 226 229 230 226 224 228 226 215 197 192 193 193 193 196 195 196 195 190 195 196 189 192 191 178 184 189 193 200 190 182 178 176 181 189 197 202 209 216 213 209 207 208 210
306 302 297 288 280 274 263 255 249 246 243 233 226 219 208 204 212 214 213 235 242 202 172 147 155 163 177 206 204 203 206 206 206 201 195 196 204 210 213 211 205 200 214 226 229 233 235 233 228 225 228 226 224 226 205 195 191 192 195 191 184 171 176 193 197 198 217 218 190 185 182 192 211 195 186 184 183 185 188 193 198 202 210 216 215 212 209 209
306 303 300 292 285 276 264 256 246 241 238 228 221 212 200 192 218 226 222 223 214 180 172 162 159 167 180 209 207 207 211 213 212 209 203 203 211 217 221 222 217 211 213 221 226 232 235 231 227 227 230 226 224 223 205 194 195 198 199 193 184 160 149 200 187 226 250 229 204 191 181 182 190 187 186 187 187 187 189 193 198 202 209 216 220 217 213 209
306 304 300 295 290 281 269 260 248 239 232 223 215 204 195 197 225 231 229 227 221 209 208 215 203 201 212 210 207 211 215 218 217 218 218 216 217 221 223 225 223 222 223 224 227 228 224 225 222 222 226 223 219 215 205 200 202 205 208 208 201 187 180 202 200 204 206 184 185 188 185 177 175 178 183 189 192 193 195 200 204 207 211 216 222 223 218 212
305 303 301 296 292 286 273 260 249 240 230 220 211 201 198 209 222 229 234 233 233 239 247 250 247 247 241 223 217 214 214 219 222 226 229 227 225 226 227 227 223 222 222 223 227 227 227 235 223 216 218 218 214 209 205 206 210 212 212 213 213 207 203 200 200 199 176 146 178 189 191 183 182 185 185 188 196 199 204 210 215 219 220 223 226 230 226 217
307 305 303 298 292 288 275 257 247 239 231 221 208 204 211 219 224 229 232 230 234 241 246 252 254 254 252 239 232 220 211 215 217 220 226 229 230 231 231 230 226 224 223 221 220 217 220 233 230 219 214 211 211 212 211 210 211 211 208 212 218 215 209 199 175 167 168 178 194 190 188 178 184 198 194 191 199 202 210 219 224 231 234 233 233 233 234 225
314 310 307 299 292 288 276 256 239 232 230 222 211 213 223 227 226 226 227 225 229 237 240 243 241 240 242 233 226 217 212 212 211 212 216 219 226 230 230 233 234 233 230 224 221 215 212 226 236 229 220 210 209 215 218 217 218 211 206 213 217 210 206 202 169 116 160 203 198 189 192 180 179 189 188 192 209 219 225 230 228 234 237 238 238 238 243 236
319 316 312 301 291 286 275 256 234 225 225 220 216 222 230 230 227 225 224 224 225 224 228 227 214 214 220 212 208 206 207 207 205 209 210 210 217 226 228 232 237 237 231 223 220 215 214 231 244 233 229 216 212 218 219 217 220 220 217 219 215 201 192 192 177 152 188 194 167 189 207 201 193 181 179 195 211 218 216 212 207 214 223 227 238 245 260 244
325 323 319 306 293 286 274 252 230 220 219 218 218 223 229 231 230 227 224 225 225 221 227 240 234 227 231 218 199 196 202 205 207 209 204 204 210 215 221 227 231 233 228 221 217 213 214 226 232 223 227 219 212 217 216 213 215 217 220 220 214 208 195 189 188 185 190 188 151 177 204 211 201 189 183 196 205 200 193 193 195 187 121 95 66 71 80 85
333 330 323 312 300 289 274 246 226 217 217 221 223 224 228 232 232 230 228 228 231 235 242 254 258 254 249 236 225 212 207 207 211 218 220 214 210 205 205 210 212 221 225 220 217 215 216 222 222 213 220 214 205 210 213 213 212 210 211 211 206 204 191 186 195 196 185 175 153 172 183 199 200 197 191 195 197 191 194 206 213 181 122 93 84 92 96 90
340 337 329 321 312 295 268 236 225 220 219 224 227 227 228 232 234 233 233 234 237 242 247 253 256 255 250 240 237 229 208 206 209 218 224 223 217 205 188 189 194 205 216 218 218 217 215 220 219 207 207 206 206 212 212 210 211 211 213 212 207 203 191 177 193 201 189 184 180 182 175 183 195 199 197 197 197 196 204 216 210 186 180 162 135 131 126 106
343 345 344 337 327 309 268 232 225 221 219 221 226 226 227 232 235 234 230 233 238 241 245 250 250 247 247 243 240 236 225 222 219 217 219 219 222 224 214 200 196 196 206 216 218 215 214 216 213 204 205 209 211 215 208 204 209 210 214 215 210 208 202 193 198 200 194 194 186 182 175 180 191 195 198 201 203 204 208 212 206 197 200 188 162 151 143 122
349 354 358 356 343 323 272 230 224 217 213 217 223 223 224 229 236 237 232 233 239 241 243 246 246 245 245 245 244 243 240 240 236 226 221 217 219 225 227 224 217 202 206 218 211 206 206 205 198 186 189 198 196 196 195 193 196 199 207 213 210 209 209 208 213 207 196 191 178 170 171 182 187 191 197 201 202 201 201 201 198 200 213 203 167 148 140 135
2 5 6 6 354 315 241 223 225 217 209 212 220 220 220 226 233 236 235 236 237 239 240 240 240 241 241 242 245 245 240 237 235 223 215 213 210 215 221 224 225 223 217 206 191 193 196 192 182 165 147 175 178 176 181 180 180 186 195 203 205 210 213 213 216 210 199 196 191 183 171 180 184 188 191 194 195 193 192 193 194 197 214 204 167 150 149 160
9 11 7 5 359 318 242 233 235 224 213 210 215 218 217 223 232 233 233 234 230 226 225 227 231 233 235 238 239 240 234 228 226 213 202 202 199 199 206 215 221 223 223 216 186 184 191 190 186 183 179 178 182 183 182 181 183 187 188 191 197 206 212 216 213 205 204 204 199 195 177 175 180 184 186 189 193 193 192 193 195 194 193 180 165 162 171 182
22 25 16 5 358 346 281 254 246 230 217 213 214 216 212 215 225 228 226 224 222 219 216 217 222 225 228 231 228 226 222 217 217 208 198 195 188 183 188 199 209 216 221 224 206 180 174 178 188 202 206 196 184 185 185 184 182 178 176 180 185 193 203 212 210 207 213 208 200 202 195 179 178 180 183 188 192 194 195 194 194 192 185 179 177 181 187 191
35 38 29 25 20 14 5 310 263 228 211 208 209 209 204 202 206 212 212 210 209 212 214 215 216 216 218 220 216 211 209 212 214 206 197 195 190 184 184 187 194 204 218 226 219 204 181 152 163 194 199 192 178 169 176 181 174 160 154 156 156 157 175 195 200 206 214 208 199 205 202 185 179 180 182 186 190 194 196 194 193 192 190 188 189 192 196 198
40 42 36 37 31 22 32 47 25 201 194 194 194 196 196 191 188 189 191 196 201 203 207 208 208 209 207 206 206 202 197 200 204 200 196 196 195 195 195 195 198 207 219 231 231 228 230 224 206 174 146 137 139 145 153 164 155 138 126 124 125 114 103 152 176 182 200 208 214 212 202 189 183 183 184 186 189 192 192 192 193 193 195 196 196 200 205 205
39 45 42 40 32 26 33 51 58 79 151 162 162 169 181 180 176 175 172 177 185 187 193 195 192 198 203 200 202 200 192 187 185 186 192 199 201 205 209 211 213 214 218 227 232 232 228 218 217 215 183 138 139 152 154 158 150 134 122 105 89 66 42 43 117 130 170 203 226 213 201 194 189 187 186 187 188 189 190 193 194 195 198 202 205 211 215 213
35 42 42 36 32 30 30 36 49 68 108 130 126 121 136 153 155 153 151 154 160 160 166 173 169 172 185 194 204 203 192 187 183 178 183 190 196 200 204 208 211 210 211 212 212 220 221 206 207 214 205 189 191 185 172 172 178 184 218 272 296 324 355 357 287 317 337 269 275 234 202 197 193 191 189 187 187 190 191 195 197 198 202 205 209 215 217 215
27 35 41 35 31 33 32 34 47 66 86 102 101 94 99 114 123 125 126 129 134 134 135 143 148 146 148 166 194 194 187 187 182 174 178 179 180 185 187 186 192 193 193 198 202 211 219 211 204 206 208 214 221 217 211 218 229 235 243 256 269 280 292 292 277 279 291 295 294 254 213 200 195 194 192 189 190 193 195 198 201 202 205 207 210 213 213 212
20 25 36 38 36 35 33 34 48 66 71 75 80 82 84 89 95 102 103 102 110 120 123 122 125 127 126 132 149 156 165 178 172 162 168 173 172 175 175 171 176 180 180 190 200 207 216 220 215 210 207 214 222 223 221 228 242 245 242 245 251 254 258 264 267 266 267 269 271 261 236 218 205 197 195 193 193 196 199 203 205 207 209 212 214 215 215 214
Height
3101 3101 3100 3099 3098 3098 3097 3097 3096 3095 3095 3095 3094 3094 3094 3093 3093 3093 3093 3093 3093 3094 3094 3094 3094 3094 3095 3095 3095 3095 3096 3096 3096 3096 3096 3096 3096 3097 3097 3097 3098 3098 3099 3100 3101 3102 3103 3105 3107 3109 3110 3111 3112 3113 3114 3115 3117 3118 3119 3119 3120 3120 3122 3123 3125 3126 3127 3127 3128 3128 3128 3128 3128 3128 3129 3129 3130 3132 3133 3134 3135 3136 3136 3137 3138 3138 3139 3140
3100 3099 3099 3098 3097 3097 3096 3095 3095 3094 3093 3093 3092 3092 3092 3092 3091 3091 3091 3091 3092 3092 3092 3092 3092 3093 3093 3093 3093 3094 3094 3094 3094 3094 3095 3095 3095 3095 3095 3096 3096 3097 3097 3098 3099 3100 3101 3103 3105 3107 3108 3109 3110 3111 3112 3114 3115 3116 3117 3118 3118 3119 3121 3123 3124 3125 3126 3126 3127 3127 3127 3127 3128 3128 3129 3130 3130 3131 3133 3134 3135 3135 3136 3137 3137 3138 3138 3139
3099 3098 3097 3097 3096 3095 3095 3094 3093 3093 3092 3091 3091 3090 3090 3090 3090 3090 3089 3090 3090 3090 3090 3091 3091 3091 3091 3091 3092 3092 3092 3093 3093 3093 3093 3093 3093 3093 3094 3094 3094 3095 3095 3096 3097 3098 3099 3101 3103 3105 3106 3107 3108 3109 3111 3112 3113 3114 3115 3116 3117 3118 3120 3122 3123 3124 3124 3125 3126 3127 3127 3127 3127 3128 3128 3129 3130 3131 3133 3133 3134 3135 3136 3136 3137 3137 3138 3138
3098 3097 3096 3096 3095 3094 3094 3093 3092 3091 3090 3090 3089 3089 3088 3088 3088 3088 3088 3088 3088 3088 3089 3089 3089 3089 3089 3090 3090 3091 3091 3091 3091 3091 3091 3092 3092 3092 3092 3092 3093 3093 3094 3095 3096 3097 3098 3100 3102 3103 3105 3106 3107 3108 3109 3110 3112 3113 3114 3115 3116 3117 3119 3121 3122 3122 3123 3124 3125 3126 3126 3126 3126 3127 3127 3129 3130 3131 3132 3133 3133 3134 3135 3136 3136 3137 3137 3138
3096 3096 3095 3094 3094 3093 3092 3092 3091 3090 3089 3089 3088 3087 3087 3086 3086 3086 3086 3086 3086 3086 3087 3087 3087 3087 3088 3088 3089 3089 3090 3090 3090 3090 3090 3090 3091 3091 3091 3091 3091 3092 3093 3093 3094 3095 3097 3098 3100 3101 3103 3104 3105 3106 3107 3109 3110 3111 3113 3114 3114 3116 3118 3119 3120 3121 3121 3122 3123 3125 3125 3125 3125 3126 3127 3128 3129 3130 3131 3132 3132 3133 3134 3135 3136 3136 3136 3137
3095 3094 3094 3093 3092 3092 3091 3090 3090 3089 3088 3087 3086 3086 3085 3085 3084 3084 3084 3084 3084 3085 3085 3085 3085 3086 3086 3087 3087 3088 3088 3088 3088 3088 3088 3089 3089 3089 3089 3090 3090 3091 3091 3092 3093 3094 3095 3097 3098 3099 3101 3102 3103 3104 3106 3107 3109 3111 3112 3113 3113 3114 3116 3118 3119 3119 3120 3121 3122 3123 3123 3124 3125 3125 3126 3127 3128 3129 3130 3131 3131 3132 3133 3134 3135 3135 3136 3136
3094 3093 3092 3092 3091 3091 3090 3089 3088 3088 3087 3086 3085 3085 3084 3083 3083 3083 3083 3083 3083 3083 3083 3083 3083 3084 3084 3085 3086 3086 3087 3087 3086 3087 3087 3087 3088 3088 3088 3089 3089 3089 3090 3091 3092 3093 3094 3095 3096 3098 3099 3100 3102 3103 3105 3106 3108 3110 3111 3112 3112 3113 3115 3116 3117 3118 3118 3119 3120 3120 3122 3123 3124 3124 3125 3126 3127 3128 3129 3130 3131 3131 3132 3133 3134 3135 3135 3136
3092 3092 3091 3091 3090 3089 3088 3088 3087 3086 3086 3085 3084 3084 3083 3082 3082 3081 3081 3081 3081 3081 3081 3081 3082 3082 3083 3083 3084 3085 3085 3084 3085 3085 3085 3086 3087 3087 3087 3088 3088 3088 3089 3089 3090 3091 3092 3094 3095 3096 3098 3099 3101 3102 3103 3105 3106 3108 3110 3111 3111 3112 3114 3115 3115 3116 3117 3117 3118 3119 3120 3122 3122 3123 3124 3125 3126 3127 3128 3129 3130 3131 3131 3132 3133 3134 3134 3135
3091 3090 3090 3089 3088 3088 3087 3086 3086 3085 3084 3084 3083 3083 3082 3081 3080 3080 3079 3080 3080 3080 3080 3080 3080 3081 3081 3082 3083 3083 3083 3083 3083 3084 3084 3084 3085 3086 3086 3086 3087 3087 3087 3088 3088 3090 3091 3092 3094 3095 3096 3098 3100 3101 3102 3103 3105 3107 3109 3109 3109 3111 3112 3113 3114 3115 3115 3116 3117 3117 3119 3120 3120 3121 3123 3124 3125 3126 3127 3128 3129 3129 3130 3131 3132 3133 3133 3134
3090 3089 3088 3088 3087 3086 3086 3085 3084 3084 3083 3083 3082 3081 3081 3080 3079 3079 3078 3078 3078 3078 3078 3078 3079 3079 3080 3081 3081 3082 3082 3081 3082 3082 3082 3083 3083 3084 3085 3085 3085 3086 3086 3087 3087 3089 3090 3091 3093 3094 3095 3097 3098 3100 3101 3102 3104 3106 3107 3107 3108 3109 3110 3111 3112 3113 3114 3115 3116 3116 3117 3118 3118 3120 3121 3123 3124 3124 3125 3126 3127 3128 3129 3130 3131 3131 3132 3133
3088 3087 3087 3086 3086 3085 3084 3084 3083 3082 3082 3081 3081 3080 3079 3079 3078 3077 3077 3077 3077 3077 3077 3077 3077 3078 3078 3079 3080 3080 3080 3080 3080 3081 3081 3081 3082 3083 3083 3083 3084 3085 3085 3086 3086 3087 3089 3090 3091 3093 3094 3095 3097 3099 3100 3101 3103 3104 3105 3105 3106 3108 3109 3109 3111 3112 3113 3114 3115 3115 3116 3116 3117 3118 3120 3121 3122 3123 3124 3125 3126 3127 3128 3129 3130 3130 3131 3132
3087 3086 3085 3085 3084 3084 3083 3082 3082 3081 3081 3080 3079 3078 3078 3077 3077 3076 3076 3075 3075 3075 3075 3075 3076 3076 3077 3078 3078 3078 3078 3079 3079 3080 3080 3080 3081 3081 3081 3082 3082 3083 3084 3084 3085 3086 3087 3088 3090 3091 3093 3094 3096 3098 3099 3100 3102 3103 3104 3105 3106 3106 3107 3108 3109 3111 3112 3113 3114 3114 3114 3114 3115 3117 3118 3120 3121 3122 3123 3124 3125 3126 3127 3128 3128 3129 3130 3131
3085 3085 3084 3084 3083 3083 3082 3081 3081 3080 3079 3079 3078 3077 3076 3076 3075 3075 3074 3074 3074 3074 3073 3074 3074 3075 3076 3077 3077 3077 3077 3078 3078 3078 3078 3079 3079 3080 3080 3081 3081 3082 3082 3082 3083 3085 3086 3088 3089 3090 3092 3094 3095 3097 3098 3099 3101 3102 3103 3104 3105 3106 3106 3107 3108 3110 3111 3112 3112 3113 3113 3113 3114 3116 3117 3119 3120 3121 3122 3123 3124 3125 3125 3126 3127 3128 3129 3130
3084 3083 3083 3082 3082 3081 3081 3080 3079 3079 3078 3077 3077 3076 3075 3074 3074 3073 3073 3073 3072 3072 3072 3072 3073 3073 3075 3075 3075 3076 3076 3076 3077 3077 3077 3078 3078 3079 3079 3079 3080 3081 3081 3081 3082 3084 3085 3087 3089 3090 3092 3093 3094 3096 3097 3098 3100 3101 3102 3103 3104 3105 3106 3106 3107 3108 3110 3111 3111 3112 3111 3111 3114 3115 3116 3117 3118 3120 3121 3122 3122 3123 3124 3125 3126 3127 3128 3129
3082 3082 3081 3081 3081 3080 3079 3079 3078 3077 3077 3076 3075 3074 3074 3073 3072 3072 3071 3071 3071 3070 3070 3071 3071 3072 3073 3074 3074 3075 3075 3075 3075 3075 3076 3076 3077 3077 3078 3078 3079 3080 3081 3081 3082 3083 3085 3087 3088 3090 3091 3093 3094 3095 3097 3098 3099 3100 3101 3102 3103 3104 3105 3105 3106 3107 3108 3109 3109 3110 3109 3110 3112 3113 3114 3116 3117 3118 3119 3120 3121 3122 3123 3124 3125 3126 3127 3128
3081 3080 3080 3079 3079 3079 3078 3077 3077 3076 3075 3074 3074 3073 3072 3071 3071 3070 3070 3070 3069 3069 3069 3069 3070 3070 3072 3072 3072 3073 3073 3073 3074 3074 3075 3075 3075 3076 3076 3077 3078 3079 3080 3081 3082 3083 3085 3086 3088 3090 3091 3092 3093 3095 3096 3097 3098 3099 3100 3101 3101 3103 3104 3104 3105 3106 3107 3107 3107 3108 3107 3108 3110 3111 3112 3114 3115 3116 3117 3118 3120 3121 3121 3123 3124 3125 3126 3127
3079 3079 3078 3078 3077 3077 3077 3076 3075 3075 3074 3073 3072 3071 3071 3070 3069 3069 3068 3068 3068 3067 3067 3067 3067 3069 3070 3070 3071 3071 3072 3072 3073 3073 3074 3074 3074 3075 3076 3077 3078 3079 3080 3081 3082 3084 3085 3086 3088 3089 3090 3092 3093 3094 3095 3096 3097 3098 3099 3100 3101 3101 3102 3103 3104 3104 3105 3105 3105 3105 3105 3106 3108 3109 3110 3111 3113 3114 3116 3117 3118 3119 3120 3121 3123 3124 3125 3126
3077 3077 3076 3076 3076 3075 3075 3074 3074 3073 3072 3071 3070 3070 3069 3069 3068 3068 3067 3067 3066 3066 3065 3065 3065 3067 3068 3069 3069 3070 3070 3071 3072 3072 3073 3073 3074 3075 3075 3076 3077 3078 3079 3081 3082 3084 3085 3086 3088 3089 3090 3091 3092 3093 3094 3095 3096 3097 3098 3099 3100 3100 3101 3102 3103 3103 3103 3103 3103 3103 3103 3104 3106 3107 3108 3108 3110 3112 3114 3115 3116 3117 3119 3120 3122 3123 3124 3125
3076 3075 3075 3074 3074 3074 3073 3073 3072 3072 3071 3070 3069 3068 3067 3067 3067 3066 3066 3065 3065 3065 3064 3064 3064 3065 3066 3066 3068 3069 3069 3070 3071 3071 3072 3072 3073 3074 3075 3075 3077 3078 3080 3081 3082 3083 3085 3086 3087 3088 3089 3090 3091 3093 3094 3095 3095 3096 3097 3098 3099 3099 3100 3100 3101 3101 3101 3101 3101 3100 3101 3103 3104 3105 3106 3107 3108 3110 3112 3113 3115 3116 3117 3119 3121 3122 3123 3124
3074 3074 3073 3073 3072 3072 3072 3071 3071 3070 3069 3069 3068 3067 3066 3066 3065 3065 3065 3064 3064 3063 3063 3062 3062 3063 3064 3065 3066 3067 3068 3069 3070 3070 3071 3072 3073 3074 3074 3075 3076 3078 3080 3081 3082 3083 3084 3085 3086 3087 3089 3090 3091 3092 3093 3094 3094 3095 3096 3097 3098 3098 3099 3099 3099 3099 3099 3099 3098 3098 3099 3101 3102 3103 3105 3106 3107 3108 3110 3112 3113 3114 3116 3118 3120 3122 3123 3124
3072 3072 3071 3071 3070 3070 3070 3070 3069 3069 3068 3067 3066 3065 3065 3065 3064 3064 3063 3062 3063 3062 3061 3060 3060 3061 3062 3063 3064 3065 3067 3068 3068 3069 3070 3071 3072 3073 3074 3075 3076 3078 3079 3081 3082 3083 3083 3084 3085 3087 3089 3089 3090 3091 3092 3093 3094 3094 3095 3096 3096 3097 3097 3098 3097 3097 3097 3097 3096 3096 3097 3098 3100 3101 3103 3104 3106 3107 3109 3110 3111 3113 3115 3117 3119 3121 3122 3122
3070 3070 3069 3069 3069 3068 3068 3068 3068 3067 3067 3066 3065 3064 3064 3064 3063 3062 3061 3060 3060 3060 3059 3058 3058 3059 3061 3062 3062 3064 3065 3066 3067 3068 3069 3070 3071 3072 3074 3075 3076 3078 3079 3080 3081 3082 3083 3083 3085 3087 3087 3088 3089 3089 3091 3092 3093 3093 3094 3095 3095 3095 3096 3096 3096 3096 3096 3095 3095 3094 3095 3096 3098 3100 3101 3103 3104 3106 3107 3109 3110 3112 3114 3116 3118 3119 3120 3121
3068 3067 3067 3067 3067 3066 3066 3067 3066 3066 3066 3065 3064 3064 3063 3063 3062 3061 3060 3058 3058 3058 3057 3056 3056 3057 3059 3060 3061 3062 3063 3065 3066 3067 3068 3069 3070 3072 3073 3074 3076 3078 3079 3079 3080 3081 3082 3083 3084 3086 3086 3087 3088 3088 3089 3091 3091 3092 3093 3093 3094 3094 3095 3095 3095 3095 3095 3094 3093 3093 3093 3095 3097 3099 3100 3102 3103 3104 3105 3107 3109 3111 3113 3115 3117 3118 3119 3120
3066 3065 3065 3065 3065 3064 3064 3065 3065 3064 3064 3064 3063 3063 3062 3062 3062 3061 3059 3057 3056 3056 3055 3054 3055 3056 3056 3057 3058 3060 3062 3064 3065 3066 3067 3068 3070 3071 3073 3074 3076 3077 3078 3079 3080 3081 3082 3083 3083 3085 3086 3086 3087 3087 3088 3089 3090 3091 3092 3092 3093 3093 3093 3094 3094 3094 3094 3094 3093 3092 3094 3095 3096 3097 3099 3100 3102 3103 3104 3106 3108 3110 3112 3114 3115 3117 3118 3120
3063 3063 3063 3062 3062 3062 3062 3063 3063 3063 3063 3062 3062 3062 3062 3062 3062 3060 3059 3057 3054 3054 3053 3053 3053 3054 3054 3055 3057 3059 3062 3063 3064 3065 3067 3068 3069 3071 3072 3074 3075 3076 3077 3078 3080 3080 3081 3082 3083 3084 3085 3085 3086 3087 3087 3088 3089 3090 3090 3091 3092 3092 3092 3093 3093 3094 3094 3093 3093 3093 3094 3095 3096 3097 3098 3100 3101 3102 3103 3105 3107 3109 3111 3112 3114 3116 3117 3119
3061 3061 3060 3060 3060 3060 3060 3060 3061 3061 3061 3061 3061 3061 3061 3061 3061 3060 3059 3056 3053 3052 3052 3052 3052 3052 3053 3054 3056 3059 3061 3062 3064 3065 3066 3068 3070 3071 3072 3073 3074 3075 3077 3078 3079 3079 3080 3081 3082 3083 3084 3084 3085 3085 3086 3087 3088 3089 3089 3090 3091 3091 3092 3092 3093 3093 3093 3093 3093 3093 3093 3094 3095 3096 3097 3099 3101 3102 3104 3105 3107 3109 3110 3111 3113 3114 3116 3117
3058 3058 3057 3057 3057 3057 3058 3058 3058 3059 3059 3060 3060 3060 3061 3061 3061 3060 3059 3057 3053 3051 3051 3051 3051 3052 3052 3053 3055 3058 3060 3061 3063 3064 3066 3068 3069 3070 3071 3072 3073 3075 3076 3077 3078 3078 3079 3080 3081 3082 3083 3083 3084 3084 3085 3086 3087 3088 3088 3089 3090 3090 3091 3091 3092 3092 3092 3093 3093 3093 3093 3094 3095 3096 3097 3098 3100 3102 3103 3105 3107 3108 3110 3111 3112 3113 3115 3117
3055 3055 3055 3055 3054 3054 3055 3055 3056 3056 3057 3058 3058 3059 3059 3060 3060 3060 3060 3058 3052 3050 3051 3050 3051 3051 3052 3052 3055 3058 3060 3060 3061 3063 3065 3067 3068 3069 3070 3071 3073 3074 3075 3076 3077 3077 3078 3080 3081 3081 3081 3082 3083 3083 3084 3085 3086 3087 3088 3088 3089 3090 3090 3091 3091 3091 3092 3092 3093 3093 3093 3093 3095 3096 3096 3097 3098 3100 3102 3104 3105 3107 3108 3110 3111 3112 3114 3115
3052 3052 3051 3052 3051 3051 3052 3053 3053 3054 3055 3056 3057 3057 3058 3060 3060 3059 3061 3058 3051 3050 3051 3050 3051 3051 3051 3052 3054 3057 3059 3060 3061 3062 3064 3066 3067 3068 3069 3071 3072 3074 3075 3075 3076 3077 3078 3079 3080 3080 3080 3081 3082 3082 3083 3084 3085 3086 3087 3088 3088 3089 3090 3090 3090 3091 3091 3092 3092 3093 3093 3092 3094 3095 3095 3096 3098 3099 3101 3102 3103 3105 3107 3108 3110 3111 3113 3114
3049 3049 3048 3048 3049 3049 3049 3050 3051 3051 3052 3054 3055 3056 3057 3058 3058 3060 3061 3056 3050 3050 3050 3050 3050 3051 3051 3052 3053 3055 3057 3059 3060 3061 3062 3064 3066 3067 3068 3070 3071 3072 3073 3074 3075 3076 3077 3078 3078 3079 3079 3080 3080 3081 3081 3083 3084 3085 3086 3087 3088 3088 3089 3089 3090 3090 3091 3091 3091 3092 3092 3092 3093 3094 3095 3096 3097 3099 3100 3101 3102 3104 3105 3106 3108 3109 3111 3113
3047 3046 3045 3045 3045 3046 3046 3047 3047 3048 3050 3051 3053 3054 3055 3057 3057 3059 3057 3051 3049 3050 3049 3049 3050 3050 3050 3051 3053 3054 3056 3058 3059 3060 3061 3063 3064 3065 3067 3068 3070 3071 3072 3072 3073 3074 3075 3076 3077 3077 3078 3079 3079 3080 3080 3081 3082 3084 3085 3086 3087 3088 3088 3089 3089 3090 3090 3090 3090 3091 3092 3092 3092 3093 3095 3096 3097 3098 3100 3101 3102 3103 3104 3105 3106 3107 3109 3111
3044 3043 3042 3042 3042 3043 3043 3043 3044 3046 3047 3049 3051 3052 3053 3055 3055 3053 3051 3048 3049 3049 3049 3049 3050 3050 3050 3051 3052 3054 3055 3057 3058 3059 3060 3061 3063 3064 3065 3066 3068 3069 3070 3071 3071 3072 3073 3074 3075 3076 3076 3077 3078 3078 3079 3080 3081 3083 3084 3085 3086 3087 3088 3089 3089 3089 3089 3089 3090 3091 3092 3092 3092 3092 3094 3095 3096 3098 3099 3100 3101 3102 3103 3103 3104 3105 3107 3109
3041 3041 3040 3039 3039 3040 3040 3040 3041 3043 3044 3046 3048 3049 3051 3052 3049 3046 3046 3048 3048 3047 3048 3049 3049 3049 3050 3050 3051 3052 3054 3055 3057 3058 3060 3061 3062 3063 3064 3065 3066 3068 3069 3069 3070 3071 3072 3072 3073 3074 3075 3075 3076 3077 3078 3079 3080 3081 3082 3084 3084 3085 3089 3090 3090 3090 3089 3088 3089 3090 3091 3091 3091 3092 3093 3094 3096 3097 3098 3099 3100 3101 3101 3102 3102 3103 3105 3106
3038 3038 3037 3036 3036 3037 3037 3038 3039 3039 3041 3043 3045 3046 3047 3046 3043 3042 3044 3046 3046 3047 3047 3048 3048 3049 3049 3049 3050 3051 3052 3054 3055 3057 3058 3059 3060 3061 3062 3063 3065 3066 3067 3068 3069 3069 3070 3070 3071 3072 3073 3074 3075 3076 3077 3078 3079 3080 3081 3082 3082 3083 3086 3087 3087 3087 3087 3087 3088 3090 3090 3090 3090 3091 3092 3093 3095 3096 3097 3098 3099 3099 3100 3100 3101 3102 3103 3104
3036 3035 3034 3034 3034 3034 3034 3035 3036 3037 3038 3039 3041 3042 3041 3040 3040 3041 3042 3044 3045 3046 3046 3046 3047 3048 3048 3049 3049 3050 3051 3052 3054 3055 3056 3057 3058 3059 3060 3061 3063 3064 3066 3067 3067 3068 3068 3069 3069 3070 3071 3072 3073 3074 3076 3077 3078 3079 3080 3081 3081 3081 3082 3083 3084 3084 3085 3086 3087 3088 3088 3088 3089 3090 3091 3092 3094 3095 3096 3097 3097 3098 3098 3099 3099 3100 3100 3101
3033 3032 3031 3031 3031 3031 3031 3032 3033 3034 3035 3036 3037 3036 3035 3036 3038 3040 3041 3043 3043 3044 3045 3045 3046 3046 3047 3047 3048 3049 3050 3051 3052 3053 3054 3055 3056 3057 3058 3060 3061 3062 3063 3065 3065 3066 3067 3067 3068 3069 3069 3070 3072 3073 3074 3075 3075 3076 3078 3078 3079 3080 3081 3082 3083 3084 3085 3085 3086 3087 3088 3088 3089 3089 3090 3091 3092 3093 3094 3095 3096 3096 3096 3097 3097 3097 3098 3098
3031 3029 3029 3028 3028 3028 3028 3029 3030 3031 3032 3033 3033 3031 3032 3035 3037 3039 3040 3041 3042 3042 3043 3044 3045 3045 3045 3046 3046 3047 3048 3049 3050 3051 3052 3053 3054 3055 3056 3057 3059 3060 3061 3063 3064 3065 3065 3066 3066 3067 3067 3068 3070 3071 3072 3073 3073 3074 3075 3076 3077 3079 3080 3080 3082 3085 3086 3085 3085 3086 3087 3087 3088 3088 3089 3090 3090 3091 3092 3093 3093 3094 3094 3094 3095 3095 3095 3096
3028 3027 3026 3025 3025 3025 3025 3026 3027 3028 3029 3029 3029 3029 3031 3033 3035 3038 3039 3039 3040 3041 3042 3043 3043 3044 3044 3045 3045 3046 3047 3048 3049 3050 3051 3052 3052 3053 3054 3055 3057 3058 3059 3061 3062 3063 3064 3065 3065 3065 3066 3067 3068 3069 3069 3070 3071 3073 3073 3075 3076 3076 3077 3078 3080 3082 3084 3084 3085 3085 3086 3086 3086 3087 3088 3089 3089 3090 3090 3091 3091 3092 3092 3092 3093 3093 3093 3094
3026 3024 3023 3023 3022 3022 3022 3023 3024 3025 3026 3025 3026 3028 3029 3031 3033 3036 3037 3038 3039 3040 3040 3041 3042 3042 3043 3043 3044 3045 3045 3046 3047 3049 3050 3050 3051 3052 3052 3053 3055 3056 3057 3059 3060 3061 3063 3064 3064 3065 3065 3065 3066 3066 3067 3067 3069 3071 3072 3073 3074 3074 3075 3076 3077 3077 3079 3082 3084 3085 3085 3084 3084 3085 3086 3087 3088 3088 3089 3090 3090 3090 3091 3091 3092 3092 3093 3093
3024 3022 3021 3020 3020 3019 3020 3020 3021 3022 3022 3022 3024 3026 3027 3029 3032 3033 3035 3037 3038 3038 3039 3040 3040 3041 3042 3042 3043 3043 3044 3045 3046 3047 3049 3050 3050 3051 3051 3052 3053 3054 3055 3057 3058 3059 3061 3062 3063 3064 3064 3064 3064 3064 3065 3066 3067 3068 3069 3070 3071 3072 3073 3074 3075 3075 3076 3078 3081 3082 3083 3082 3082 3084 3085 3086 3087 3087 3088 3089 3089 3090 3090 3091 3091 3092 3093 3094
3023 3021 3019 3018 3018 3018 3018 3018 3019 3020 3020 3021 3023 3025 3026 3028 3030 3032 3033 3035 3036 3037 3037 3038 3039 3040 3041 3041 3042 3042 3043 3043 3044 3045 3047 3048 3049 3050 3050 3051 3052 3053 3053 3054 3056 3057 3059 3060 3061 3062 3063 3063 3063 3063 3064 3065 3065 3066 3067 3068 3069 3070 3071 3072 3073 3074 3075 3075 3077 3078 3079 3079 3080 3082 3083 3084 3086 3086 3087 3088 3088 3089 3090 3090 3091 3092 3093 3094
3021 3020 3018 3017 3016 3016 3016 3016 3017 3018 3019 3020 3021 3023 3026 3027 3029 3031 3032 3033 3034 3035 3035 3036 3038 3038 3039 3040 3040 3041 3042 3042 3043 3044 3044 3046 3047 3048 3050 3051 3051 3052 3052 3053 3053 3055 3057 3058 3059 3061 3061 3061 3062 3062 3063 3063 3064 3065 3066 3067 3068 3068 3069 3070 3071 3072 3073 3074 3075 3075 3076 3077 3079 3080 3082 3083 3084 3085 3086 3087 3088 3088 3089 3090 3091 3092 3093 3094
3019 3018 3017 3016 3016 3015 3015 3016 3016 3017 3018 3019 3020 3022 3024 3026 3027 3029 3030 3031 3032 3033 3034 3035 3036 3037 3037 3038 3039 3040 3041 3041 3042 3042 3043 3044 3045 3046 3048 3049 3050 3051 3051 3052 3052 3053 3055 3056 3057 3059 3060 3060 3061 3061 3062 3062 3063 3064 3064 3065 3066 3067 3068 3068 3069 3070 3071 3071 3073 3074 3075 3076 3078 3079 3080 3082 3083 3084 3085 3086 3087 3087 3088 3089 3090 3092 3093 3094
3019 3018 3017 3016 3015 3015 3015 3015 3015 3016 3017 3018 3020 3021 3023 3025 3026 3027 3029 3030 3031 3032 3032 3033 3034 3035 3036 3036 3037 3038 3039 3040 3040 3041 3041 3042 3043 3044 3045 3047 3049 3050 3050 3051 3051 3052 3053 3055 3056 3057 3059 3060 3061 3061 3061 3061 3062 3063 3063 3064 3065 3065 3066 3067 3068 3069 3069 3069 3070 3071 3072 3074 3076 3078 3079 3080 3081 3083 3084 3085 3085 3086 3087 3089 3091 3092 3093 3094
3019 3018 3017 3016 3015 3015 3015 3015 3015 3016 3017 3018 3019 3020 3022 3023 3024 3026 3027 3028 3029 3030 3031 3032 3032 3033 3034 3035 3036 3036 3037 3038 3039 3040 3040 3041 3042 3043 3044 3045 3047 3048 3049 3050 3050 3051 3053 3054 3054 3055 3056 3057 3058 3058 3059 3060 3061 3062 3062 3063 3064 3064 3065 3066 3067 3068 3067 3068 3069 3070 3070 3072 3074 3076 3078 3079 3080 3081 3082 3083 3084 3085 3087 3089 3090 3092 3093 3094
3020 3019 3017 3016 3015 3015 3014 3014 3014 3015 3016 3017 3018 3019 3021 3022 3023 3024 3026 3027 3028 3029 3030 3030 3031 3032 3033 3033 3034 3035 3036 3037 3038 3038 3039 3040 3041 3042 3043 3044 3045 3046 3048 3050 3050 3051 3052 3053 3053 3053 3053 3054 3055 3056 3057 3059 3060 3061 3062 3063 3063 3064 3064 3064 3065 3066 3066 3067 3068 3068 3069 3070 3072 3074 3076 3078 3079 3080 3081 3082 3083 3084 3086 3088 3089 3090 3092 3093
3021 3019 3018 3017 3016 3015 3014 3014 3013 3013 3014 3016 3017 3018 3019 3021 3022 3023 3024 3025 3026 3027 3028 3029 3030 3030 3031 3032 3033 3033 3034 3035 3036 3037 3038 3039 3040 3041 3042 3043 3044 3045 3046 3048 3049 3050 3052 3052 3053 3053 3053 3055 3056 3056 3057 3058 3059 3060 3061 3062 3062 3063 3063 3063 3063 3064 3065 3066 3067 3068 3069 3069 3071 3073 3074 3076 3077 3078 3079 3081 3082 3083 3085 3086 3088 3089 3091 3092
3022 3021 3019 3018 3017 3016 3015 3014 3012 3012 3013 3014 3016 3017 3019 3020 3021 3022 3023 3024 3025 3026 3027 3028 3028 3029 3030 3031 3032 3032 3033 3034 3035 3036 3037 3038 3039 3040 3041 3042 3044 3044 3045 3046 3048 3050 3052 3053 3053 3053 3053 3054 3055 3056 3057 3058 3058 3059 3060 3060 3061 3062 3062 3063 3063 3063 3064 3065 3066 3067 3068 3069 3070 3071 3073 3074 3076 3077 3078 3079 3081 3082 3084 3085 3087 3088 3090 3091
3023 3022 3021 3020 3019 3017 3016 3015 3014 3014 3014 3014 3016 3017 3018 3019 3020 3022 3023 3024 3025 3026 3026 3027 3027 3028 3029 3030 3031 3032 3032 3033 3033 3034 3035 3037 3038 3039 3040 3041 3042 3043 3045 3045 3046 3047 3049 3051 3052 3053 3053 3054 3055 3056 3057 3058 3058 3059 3059 3059 3060 3061 3062 3062 3063 3063 3064 3064 3065 3066 3068 3069 3070 3071 3072 3074 3075 3076 3077 3078 3080 3081 3083 3084 3085 3087 3088 3090
3024 3023 3022 3021 3020 3019 3018 3017 3016 3016 3016 3016 3017 3018 3018 3019 3020 3021 3022 3023 3024 3025 3026 3026 3027 3027 3028 3029 3030 3031 3031 3032 3032 3033 3034 3035 3037 3038 3039 3040 3041 3042 3043 3044 3044 3045 3046 3049 3050 3051 3053 3054 3055 3056 3057 3058 3059 3059 3059 3058 3059 3060 3061 3062 3063 3064 3064 3065 3065 3066 3067 3068 3069 3071 3072 3073 3074 3075 3076 3078 3079 3080 3082 3083 3084 3085 3087 3088
3024 3024 3023 3023 3022 3021 3020 3019 3018 3018 3018 3018 3018 3019 3020 3020 3020 3021 3022 3022 3023 3024 3025 3025 3026 3027 3028 3029 3029 3030 3031 3031 3032 3033 3033 3034 3035 3036 3037 3038 3039 3040 3041 3042 3043 3043 3045 3047 3048 3050 3052 3053 3054 3055 3057 3058 3059 3059 3058 3059 3060 3060 3061 3062 3063 3064 3064 3065 3066 3067 3067 3068 3068 3070 3071 3072 3074 3075 3076 3077 3078 3079 3081 3082 3083 3084 3085 3086
3025 3024 3024 3023 3023 3022 3022 3021 3021 3020 3019 3020 3020 3020 3021 3021 3021 3022 3022 3022 3023 3024 3024 3025 3026 3027 3028 3028 3029 3030 3031 3031 3032 3033 3033 3034 3035 3036 3036 3037 3038 3039 3040 3041 3042 3042 3043 3044 3046 3048 3050 3051 3053 3054 3056 3058 3058 3057 3057 3058 3059 3060 3060 3061 3062 3063 3064 3064 3065 3066 3067 3068 3068 3069 3070 3071 3072 3074 3075 3076 3077 3078 3079 3080 3081 3082 3083 3084